Regional Weather Roundup
Issued by NWS

Home | Current Version | Previous Version | Graphics & Text | Print | Product List | Glossary On
Versions: 1 2 3 4 5 6 7 8 9 10 11 12 13 14 15 16 17 18 19 20 21 22 23 24 25 26 27 28 29 30 31 32 33 34 35 36 37 38 39 40 41 42 43 44 45 46 47 48 49 50
000
ASUS43 KFSD 250402
RWRSD

WEATHER ROUNDUP FOR SOUTH DAKOTA
NATIONAL WEATHER SERVICE SIOUX FALLS SD
1100 PM CDT MON APR 24 2017

NOTE: "FAIR" INDICATES FEW OR NO CLOUDS BELOW 12,000 FEET WITH NO
SIGNIFICANT WEATHER AND/OR OBSTRUCTIONS TO VISIBILITY.


SDZ001>005-009-010-012>017-250500-
NORTHWEST AND NORTH CENTRAL SOUTH DAKOTA

CITY           SKY/WX    TMP DP  RH WIND       PRES   REMARKS
BUFFALO          N/A     38  34  85 NE16      29.61R
FAITH            N/A     38  35  89 NE16      29.66S
MOBRIDGE       CLOUDY    38  30  73 N13       29.67R
$$

SDZ012>016-024>037-041>051-057-063-072>074-250500-
SOUTHWEST AND SOUTH CENTRAL SOUTH DAKOTA

CITY           SKY/WX    TMP DP  RH WIND       PRES   REMARKS
RAPID CTY ARPT CLOUDY    44  37  76 NE17      29.62R
PIERRE         PTCLDY    37  33  85 N13       29.65R
CUSTER         CLOUDY    40  37  89 E12       29.61S
ELLSWORTH AFB  MOCLDY    44  39  83 NE14G22   29.62R
PHILIP         CLEAR     39  36  89 NE10      29.66R
PINE RIDGE     CLOUDY    50  43  77 E12       29.60R
SPEARFISH      CLOUDY    43  39  87 E14G21    29.63R
WINNER         FAIR      41  37  86 N5        29.64R
$$

SDZ004>011-016>023-039-040-250500-
NORTHEAST SOUTH DAKOTA

CITY           SKY/WX    TMP DP  RH WIND       PRES   REMARKS
ABERDEEN       CLOUDY    37  31  78 N20       29.66S
WATERTOWN      CLOUDY    39  36  89 N15       29.59S
BROOKINGS      PTCLDY    43  38  82 N14       29.57R
SISSETON         N/A     37  36  96 N22       29.60R
$$

SDZ017-020-022-023-036>040-048>070-250500-
SOUTHEAST SOUTH DAKOTA

CITY           SKY/WX    TMP DP  RH WIND       PRES   REMARKS
SIOUX FALLS    CLOUDY    49  41  74 NW15      29.56R
HURON          CLOUDY    42  36  79 N13       29.63R
CHAMBERLAIN    CLOUDY    45  40  80 NW12G18   29.63S
MITCHELL       PTCLDY    46  38  73 N14       29.62R
YANKTON        CLOUDY    50  39  66 NW12      29.57R
$$

ABBREVIATIONS USED IN REMARKS
   TC - TEMPERATURE IN CELSIUS
  WCI - WIND CHILL INDEX
   HX - HEAT INDEX
  VSB - VISIBILITY




USA.gov is the U.S. government's official web portal to all federal, state and local government web resources and services.